OV1-4 R/B, 2124

Orbit data source: Space-Track

OV1-4 R/B, 2124 is space debris in LEO originally from a launch on Wed, 30 Mar 1966 UTC launched from the Air Force Western Test Range (AFWTR). Debris objects in space refer to the collection of defunct objects orbiting the Earth. Examples of debris include non-operational satellites, rocket bodies, and fragments generated from explosions, collisions, or faulty payload assembly.

Loading next visibility...
Identifier
2124, 1966-025D
Orbit
LEO
Country
Flag of USUS
Related business
Manufacturer
ABL
Mission
Spacecraft
Bus & Motor
ALTAIR, Unknown motor
Mass
~125 kg wet, ~125 kg dry
Launch date (UTC)
1966-03-30 (60 years ago)
Launch vehicle
Unknown
Launch site
Air Force Western Test Range (AFWTR)
Object type
Payload
Rocket body
Debris
Shape & HBR
Unknown
Radar Cross Section
Medium (>0.1 m² and <1 m²)

Expand to show TLE details & history
Last TLE update: 17 hours ago

TLE from 17 hours ago
0 OV1-4 R/B
1  2124U 66025D   25295.99957206  .00000429  00000-0  13205-3 0  9997
2  2124 144.5122 304.3620 0081075 214.4864 145.0526 13.87795541 18639
Epoch: 2025-10-22T23:59Z
TLE epoch observation values (Epoch: 2025-10-22T23:59:23.025Z)
Latitude
-0.00003°
Longitude
-87.14902°
Altitude
984.143 km
Speed
7.337 km/s
True Right ascension
20h 17m 26s
True Declination
0° 00' 00"
Sunlit
Object was in daylight at epoch
Visualization orbit readout
Latitude
Unknown
Longitude
Unknown
Altitude
Unknown
Speed
Unknown
Apparent Right ascension
Unknown
Apparent Declination
Unknown
Sunlit
N/A
Visualization observer readout
Local Sidereal Time
11:49:26
Azimuth
Unknown
Elevation
Unknown
Doppler factor
Unknown
Orbital elements
Apogee altitude
998.676 km
Perigee altitude
880.023 km
Semi-major axis
7,317.486 km
Eccentricity
0.00811
Inclination
144.5122°
RAAN
304.362°
Arg. of periapsis
214.4864°
True anomaly
145.58039°
Mean anomaly
145.0526°
Eccentric anomaly
145.31693°
Mean motion
3.46737 °/min
Orbital period
103.83 mins
BSTAR
0.00013205
Loading maneuver chart data...
Computing Atmospheric mass density...
Loading historical data...
Loading historical data...
Loading historical data...
Loading historical data...
Loading historical data...
Loading historical data...
Loading historical data...

Documentation

Showing up to 5 results
|